Home   Weather   Achim   Past weeks

Flag for Germany Past Weather in Achim, Lower Saxony, Germany — Yesterday and Last 2 Weeks

Now
34 °F

Passing clouds.


Feels Like: 30 °F
Forecast: 30 / 51 °F
Wind: 5 mph from West

Location: Bremen Airport

Current Time: Apr 26, 2017 at 2:48:06 am

Latest Report: Apr 26, 2017 at 1:50 am


Visibility: N/A

Pressure: 29.80 "Hg

Humidity: 87%

Dew Point: 30 °F

Location of AchimLocation

Past Weather in Achim — Graph

°F

Achim Temperature Yesterday

Maximum temperature yesterday: 46 °F (at 11:50 am)
Minimum temperature yesterday: 36 °F (at 10:20 pm)
Average temperature yesterday: 42 °F

High & Low Weather Summary for the Past Weeks

 TemperatureHumidityPressure
High57 °F (Apr 21, 11:50 am)100% (Apr 14, 5:20 am)30.63 "Hg (Apr 14, 5:20 am)
Low27 °F (Apr 20, 6:20 am)35% (Apr 20, 5:50 pm)29.59 "Hg (Apr 25, 5:20 am)
Average44 °F75%30.09 "Hg
* Reported Apr 11 1:20 am — Apr 26 1:50 am, Achim, Weather by CustomWeather, © 2017

Note: Actual official high and low records may vary slightly from our data, if they occured in-between our weather recording intervals... More about our weather records

Advertising

Achim Weather History for the Previous 24 Hours

Scroll right to see more
 ConditionsComfort  
Time TempWeatherWind HumidityBarometerVisibility
1:50 am
Wed, Apr 26
34 °FPassing clouds.5 mph87%29.80 "HgN/A
1:20 am34 °FPassing clouds.7 mph87%29.80 "HgN/A
12:50 am34 °FClear.6 mph87%29.80 "Hg10 mi
12:20 am36 °FClear.7 mph87%29.80 "Hg10 mi
11:50 pm
Tue, Apr 25
36 °FClear.6 mph87%29.80 "Hg10 mi
11:20 pm39 °FPassing clouds.9 mph81%29.80 "HgN/A
10:50 pm37 °FClear.7 mph81%29.77 "Hg10 mi
10:20 pm36 °FPassing clouds.6 mph87%29.77 "HgN/A
9:50 pm37 °FPassing clouds.5 mph81%29.77 "HgN/A
9:20 pm39 °FPassing clouds.7 mph75%29.77 "HgN/A
8:50 pm39 °FPassing clouds.7 mph75%29.77 "HgN/A
8:20 pm39 °FPassing clouds.8 mph81%29.77 "HgN/A
7:50 pm45 °FScattered showers. Scattered clouds.9 mph66%29.77 "HgN/A
7:20 pm43 °FRain showers. Scattered clouds.7 mph76%29.77 "HgN/A
6:50 pm45 °FScattered clouds.9 mph66%29.77 "HgN/A
6:20 pm46 °FCool.10 mph62%29.77 "HgN/A
5:50 pm45 °FScattered clouds.8 mph71%29.74 "HgN/A
5:20 pm45 °FScattered clouds.10 mph66%29.74 "HgN/A
4:50 pm46 °FScattered clouds.14 mph53%29.74 "HgN/A
4:20 pm46 °FScattered clouds.12 mph57%29.74 "HgN/A
3:50 pm46 °FScattered clouds.8 mph62%29.74 "HgN/A
3:20 pm43 °FScattered clouds.10 mph71%29.71 "HgN/A
2:50 pm43 °FScattered clouds.14 mph71%29.71 "HgN/A
2:20 pm45 °FScattered clouds.10 mph71%29.71 "HgN/A
1:50 pm43 °FScattered clouds.10 mph76%29.68 "HgN/A
1:20 pm41 °FScattered clouds.9 mph81%29.68 "HgN/A
12:50 pm39 °FThundershowers. Partly sunny.23 mph87%29.68 "HgN/A
12:20 pm39 °FPartly sunny.18 mph81%29.65 "HgN/A
11:50 am46 °FPartly sunny.21 mph62%29.62 "HgN/A
11:20 am45 °FPartly sunny.16 mph71%29.62 "HgN/A
10:50 am43 °FPartly sunny.18 mph71%29.62 "HgN/A
10:20 am43 °FSprinkles. Partly sunny.20 mph71%29.62 "HgN/A
9:50 am43 °FPartly sunny.21 mph71%29.62 "HgN/A
9:20 am43 °FScattered clouds.18 mph76%29.62 "HgN/A
8:50 am43 °FScattered clouds.16 mph76%29.62 "HgN/A
8:20 am41 °FScattered clouds.17 mph81%29.62 "HgN/A
7:50 am41 °FLight rain. Scattered clouds.14 mph87%29.59 "HgN/A
7:20 am41 °FDrizzle. Partly sunny.14 mph93%29.59 "HgN/A
6:50 am41 °FDrizzle. Partly sunny.10 mph93%29.59 "Hg6 mi
6:20 am41 °FPartly sunny.7 mph93%29.59 "Hg5 mi
5:50 am41 °FPartly cloudy.5 mph93%29.59 "Hg5 mi
5:20 am41 °FPartly cloudy.2 mph93%29.59 "HgN/A
4:50 am41 °FPassing clouds.1 mph93%29.62 "HgN/A
4:20 am39 °FLight rain. Passing clouds.No wind100%29.62 "HgN/A
3:50 am39 °FPassing clouds.2 mph93%29.62 "HgN/A
3:20 am39 °FLight rain. Passing clouds.1 mph93%29.65 "HgN/A
2:50 am39 °FLight rain. Partly cloudy.5 mph93%29.65 "HgN/A
2:20 am39 °FLight rain. Partly cloudy.1 mph100%29.65 "HgN/A
Weather by CustomWeather, © 2017

See weather overviewHow to use our weather pages